Flag for U.S.A. Weather past 2 weeks in Sacramento, California, U.S.A.

Now
53 °F

Clear.


Feels Like: 53 °F
Forecast: 52 / 85 °F
Wind: No wind

Location: Sacramento Executive Airport

Current Time: Oct 2, 2014 at 5:04:59 AM

Latest Report: Oct 2, 2014 at 3:53 AM


Visibility: 10 mi

Pressure: 29.95 "Hg

Humidity: 74%

Dew point: 45 °F

Location of SacramentoLocation

Historic Weather in Sacramento — Graph

°F

Sacramento temperature yesterday

Maximum temperature yesterday: 87 °F (at 3:53 PM)
Minimum temperature yesterday: 63 °F (at 5:53 AM)
Average temperature yesterday: 73 °F

Past Weeks' High & Low Weather Summary

 TemperatureHumidityPressure
High88 °F (Sep 17, 2:53 PM)96% (Sep 29, 6:53 AM)30.02 "Hg (Sep 29, 6:53 AM)
Low53 °F (Sep 29, 6:53 AM)15% (Oct 1, 3:53 PM)29.69 "Hg (Sep 17, 5:53 PM)
Average70 °F64%29.88 "Hg
* Reported Sep 17 3:53 AM — Oct 2 3:53 AM, Sacramento, Weather by CustomWeather, © 2014

Note: Actual official high and low records may vary slightly from our data, if they occured in-between our weather recording intervals... More about our weather records

Advertising

Sacramento weather history for previous 24 hours

 ConditionsComfort  
Time TempWeatherWind HumidityBarometerVisibility
3:53 AM
Oct 2
53 °FClear.No wind74%29.95 "Hg10 mi
2:53 AM54 °FClear.No wind69%29.94 "Hg10 mi
1:53 AM55 °FClear.No wind67%29.94 "Hg10 mi
12:53 AM59 °FClear.No wind54%29.92 "Hg10 mi
11:53 PM
Oct 1
63 °FClear.No wind48%29.91 "Hg10 mi
10:53 PM67 °FClear.3 mph41%29.90 "Hg10 mi
9:53 PM65 °FClear.No wind47%29.90 "Hg10 mi
8:53 PM67 °FClear.3 mph44%29.89 "Hg10 mi
7:53 PM71 °FClear.No wind32%29.88 "Hg10 mi
6:53 PM80 °FSunny.6 mph21%29.86 "Hg10 mi
5:53 PM85 °FSunny.9 mph17%29.85 "Hg10 mi
4:53 PM87 °FSunny.13 mph16%29.84 "Hg10 mi
3:53 PM87 °FSunny.13 mph15%29.85 "Hg10 mi
2:53 PM86 °FSunny.14 mph16%29.85 "Hg10 mi
1:53 PM86 °FSunny.16 mph17%29.86 "Hg10 mi
12:53 PM83 °FSunny.18 mph19%29.88 "Hg10 mi
11:53 AM80 °FSunny.18 mph22%29.90 "Hg10 mi
10:53 AM77 °FSunny.21 mph26%29.91 "Hg10 mi
9:53 AM73 °FSunny.18 mph30%29.91 "Hg10 mi
8:53 AM68 °FSunny.13 mph38%29.90 "Hg10 mi
7:53 AM64 °FClear.10 mph45%29.90 "Hg10 mi
6:53 AM63 °FClear.13 mph45%29.88 "Hg10 mi
5:53 AM63 °FClear.17 mph47%29.85 "Hg10 mi
Weather by CustomWeather, © 2014

See weather overviewHow to use our weather pages